Regional Weather Roundup
Issued by NWS Cleveland, OH

Home | Current Version | Previous Version | Graphics & Text | Print | Product List | Glossary On
Versions: 1 2 3 4 5 6 7 8 9 10 11 12 13 14 15 16 17 18 19 20 21 22 23 24 25 26 27 28 29 30 31 32 33 34 35 36 37 38 39 40 41 42 43 44 45 46 47 48 49 50
000
ASUS41 KCLE 222010
RWRCLE
OHIO REGIONAL WEATHER ROUNDUP
NATIONAL WEATHER SERVICE CLEVELAND, OH
400 PM EDT FRI MAY 22 2015

NOTE: "FAIR" INDICATES FEW OR NO CLOUDS BELOW 12,000 FEET WITH NO
SIGNIFICANT WEATHER AND/OR OBSTRUCTIONS TO VISIBILITY.

OHZ001>008-015>018-024>027-034-035-043-044-222100-
   NORTHWEST OHIO

CITY           SKY/WX    TMP DP  RH WIND       PRES   REMARKS
DEFIANCE       SUNNY     70  33  25 W8        30.21S
FINDLAY        SUNNY     71  31  22 N8G18     30.19S
TOLEDO EXPRESS SUNNY     68  28  22 NW7G16    30.21S
TOLEDO EXEC    SUNNY     69  27  20 NW6       30.21S
LIMA           SUNNY     69  34  27 VRB5      30.20S
$$

OHZ009>014-019>023-028>033-038-089-222100-
   NORTHEAST OHIO

CITY           SKY/WX    TMP DP  RH WIND       PRES   REMARKS
CLE-HOPKINS    SUNNY     61  32  33 N16       30.25R
CLE-LAKEFRONT  SUNNY     59  38  45 NW9       30.24R
CUY CO. ARPT   SUNNY     61  34  36 N14       30.24R
LORAIN-ELYRIA  SUNNY     62  30  29 NE10      30.23R
ASHTABULA      SUNNY     57  34  41 N16G24    30.23R
AKRON-CANTON   MOSUNNY   65  31  28 N15G25    30.20R
WOOSTER        SUNNY     67  28  23 N16G23    30.22R
MANSFIELD        N/A    N/A N/A N/A MISG      30.20F
YOUNGSTOWN     MOSUNNY   62  31  31 NW18G24   30.19R
$$

OHZ042-051>053-060>062-070>072-077>081-222100-
  SOUTHWEST OHIO

CITY           SKY/WX    TMP DP  RH WIND       PRES   REMARKS
CINC-COVINGTON MOSUNNY   72  48  42 SW8G22    30.21F
CINC-LUNKEN    MOSUNNY   74  48  39 SW10      30.21S
HAMILTON       MOSUNNY   76  47  35 W8G20     30.20S
DAYTON         MOSUNNY   75  44  33 W14       30.19S
WRIGHT-PAT AFB SUNNY     75  45  34 W15       30.17F
DAYTON GENERAL PTSUNNY   74  47  38 W15       30.19S
WILMINGTON     MOSUNNY   71  43  36 SW16G23   30.19F
$$

OHZ036-037-039>041-045>050-054>059-063>069-073>076-082>088-222100-
  CENTRAL AND SOUTHEAST OHIO

CITY           SKY/WX    TMP DP  RH WIND       PRES   REMARKS
COLUMBUS       PTSUNNY   68  48  48 N8        30.17S
OSU AIRPORT    MOSUNNY   71  49  45 N13G18    30.16F
BOLTON FIELD   PTSUNNY   70  46  43 W9        30.18S
RICKENBACK AFB MOSUNNY   72  47  41 W10G17    30.16F
NEWARK         MOSUNNY   68  48  48 NW10      30.17S
MARION         SUNNY     70  35  27 W9G18     30.20S
LANCASTER      PTSUNNY   73  45  36 W10       30.17F
ZANESVILLE     SUNNY     71  48  43 W12       30.17F
NEW PHILLY     SUNNY     69  37  30 NW14G21   30.19S
$$


USA.gov is the U.S. government's official web portal to all federal, state and local government web resources and services.